| time (UTC) | temp F | wind direction | speed knots | gust knots | rain 1hr in | rain 24hr in | rain mn in | humidity % | barometer mb |
| 20260505032050 | 74 | 119 | 3.5 | 8.7 | 0.00 | 0.01 | 0.01 | 100 | 1017.7 |
| 20260505031553 | 74 | 119 | 1.7 | 11.3 | 0.00 | 0.01 | 0.01 | 100 | 1017.7 |
| 20260505031049 | 74 | 130 | 4.3 | 11.3 | 0.00 | 0.01 | 0.01 | 100 | 1017.7 |
| 20260505030554 | 74 | 123 | 2.6 | 9.6 | 0.00 | 0.01 | 0.01 | 100 | 1017.7 |
| 20260505030050 | 74 | 138 | 3.5 | 9.6 | 0.00 | 0.01 | 0.01 | 100 | 1017.6 |
| 20260505025549 | 74 | 142 | 0.9 | 7.8 | 0.00 | 0.01 | 0.01 | 100 | 1017.5 |
| 20260505025052 | 74 | 119 | 2.6 | 10.4 | 0.00 | 0.01 | 0.01 | 100 | 1017.5 |
| 20260505024553 | 74 | 140 | 3.5 | 10.4 | 0.00 | 0.01 | 0.01 | 100 | 1017.7 |
| 20260505024048 | 74 | 123 | 2.6 | 11.3 | 0.00 | 0.01 | 0.01 | 100 | 1017.6 |
| 20260505023550 | 74 | 113 | 3.5 | 9.6 | 0.00 | 0.01 | 0.01 | 100 | 1017.7 |
| 20260505023052 | 74 | 130 | 3.5 | 8.7 | 0.00 | 0.01 | 0.01 | 100 | 1017.8 |
| 20260505022548 | 74 | 117 | 2.6 | 9.6 | 0.00 | 0.01 | 0.01 | 100 | 1017.8 |
| 20260505022051 | 74 | 99 | 3.5 | 13.0 | 0.00 | 0.01 | 0.01 | 100 | 1017.7 |
| 20260505021547 | 74 | 111 | 2.6 | 13.0 | 0.00 | 0.01 | 0.01 | 100 | 1017.6 |
| 20260505021047 | 74 | 123 | 5.2 | 12.2 | 0.00 | 0.01 | 0.01 | 100 | 1017.6 |
| 20260505020547 | 74 | 132 | 5.2 | 10.4 | 0.00 | 0.01 | 0.01 | 100 | 1017.5 |
| 20260505020050 | 74 | 101 | 3.5 | 8.7 | 0.00 | 0.01 | 0.01 | 100 | 1017.5 |
| 20260505015547 | 74 | 109 | 4.3 | 7.8 | 0.00 | 0.01 | 0.01 | 100 | 1017.5 |
| 20260505015046 | 74 | 157 | 4.3 | 7.8 | 0.00 | 0.01 | 0.01 | 100 | 1017.5 |
| 20260505014553 | 74 | 123 | 2.6 | 7.8 | 0.00 | 0.01 | 0.01 | 100 | 1017.5 |
| 20260505014045 | 74 | 132 | 2.6 | 7.8 | 0.00 | 0.01 | 0.01 | 100 | 1017.6 |
| 20260505013545 | 74 | 126 | 2.6 | 7.8 | 0.00 | 0.01 | 0.01 | 100 | 1017.6 |
| 20260505013045 | 74 | 128 | 2.6 | 10.4 | 0.00 | 0.01 | 0.01 | 100 | 1017.7 |
| 20260505012545 | 74 | 134 | 2.6 | 10.4 | 0.00 | 0.01 | 0.01 | 100 | 1017.6 |
| 20260505012045 | 74 | 121 | 2.6 | 10.4 | 0.00 | 0.01 | 0.01 | 100 | 1017.5 |
| 20260505011547 | 74 | 107 | 2.6 | 10.4 | 0.00 | 0.01 | 0.01 | 100 | 1017.5 |
| 20260505011044 | 74 | 107 | 2.6 | 9.6 | 0.00 | 0.01 | 0.01 | 100 | 1017.5 |
| 20260505010544 | 74 | 109 | 2.6 | 9.6 | 0.00 | 0.01 | 0.01 | 100 | 1017.3 |
| 20260505010104 | 74 | 128 | 2.6 | 9.6 | 0.00 | 0.01 | 0.01 | 100 | 1017.1 |
| 20260505005547 | 74 | 130 | 3.5 | 9.6 | 0.00 | 0.01 | 0.01 | 100 | 1017.1 |
| 20260505005045 | 74 | 119 | 3.5 | 9.6 | 0.00 | 0.01 | 0.01 | 100 | 1017.1 |
| 20260505004544 | 74 | 113 | 1.7 | 7.0 | 0.00 | 0.01 | 0.01 | 100 | 1017.1 |
| 20260505004043 | 74 | 117 | 3.5 | 7.8 | 0.00 | 0.01 | 0.01 | 100 | 1017.0 |
| 20260505003543 | 74 | 107 | 2.6 | 8.7 | 0.00 | 0.01 | 0.01 | 100 | 1017.1 |
| 20260505003046 | 74 | 132 | 3.5 | 9.6 | 0.00 | 0.01 | 0.01 | 100 | 1017.0 |
| 20260505002545 | 74 | 106 | 2.6 | 9.6 | 0.00 | 0.01 | 0.01 | 100 | 1017.1 |
| 20260505002042 | 74 | 120 | 1.7 | 7.8 | 0.00 | 0.01 | 0.01 | 100 | 1017.0 |
| 20260505001542 | 74 | 144 | 2.6 | 7.8 | 0.00 | 0.01 | 0.01 | 100 | 1016.9 |
| 20260505001111 | 74 | 96 | 1.7 | 10.4 | 0.00 | 0.01 | 0.01 | 100 | 1016.8 |
| 20260505000541 | 74 | 82 | 3.5 | 7.8 | 0.00 | 0.01 | 0.01 | 100 | 1016.7 |
| 20260505000046 | 74 | 146 | 2.6 | 7.8 | 0.00 | 0.01 | 0.01 | 100 | 1016.6 |
| 20260504235541 | 74 | 92 | 3.5 | 7.8 | 0.00 | 0.01 | 0.01 | 100 | 1016.5 |
| 20260504235043 | 74 | 128 | 2.6 | 9.6 | 0.00 | 0.01 | 0.01 | 100 | 1016.4 |
| 20260504234542 | 74 | 126 | 2.6 | 9.6 | 0.00 | 0.01 | 0.01 | 100 | 1016.4 |
| 20260504234041 | 74 | 134 | 2.6 | 8.7 | 0.00 | 0.01 | 0.01 | 100 | 1016.3 |
| 20260504233541 | 74 | 137 | 2.6 | 8.7 | 0.00 | 0.01 | 0.01 | 100 | 1016.3 |
| 20260504233040 | 74 | 148 | 2.6 | 9.6 | 0.00 | 0.01 | 0.01 | 100 | 1016.3 |
| 20260504232540 | 74 | 168 | 4.3 | 9.6 | 0.00 | 0.01 | 0.01 | 100 | 1016.3 |
| 20260504232039 | 74 | 30 | 2.6 | 7.0 | 0.00 | 0.01 | 0.01 | 100 | 1016.3 |
| 20260504231545 | 74 | 144 | 2.6 | 10.4 | 0.00 | 0.01 | 0.01 | 100 | 1016.4 |
| 20260504231039 | 74 | 109 | 2.6 | 10.4 | 0.00 | 0.01 | 0.01 | 100 | 1016.4 |
| 20260504230542 | 74 | 145 | 3.5 | 11.3 | 0.00 | 0.01 | 0.01 | 100 | 1016.5 |
| 20260504230044 | 74 | 85 | 5.2 | 11.3 | 0.00 | 0.01 | 0.01 | 100 | 1016.6 |
| 20260504225539 | 74 | 143 | 3.5 | 10.4 | 0.00 | 0.01 | 0.01 | 100 | 1016.4 |
| 20260504225038 | 74 | 116 | 3.5 | 8.7 | 0.00 | 0.01 | 0.01 | 100 | 1016.4 |
| 20260504224538 | 75 | 126 | 3.5 | 7.8 | 0.00 | 0.01 | 0.01 | 100 | 1016.3 |
| 20260504224038 | 75 | 136 | 2.6 | 8.7 | 0.00 | 0.01 | 0.01 | 100 | 1016.4 |
| 20260504223544 | 75 | 119 | 2.6 | 11.3 | 0.00 | 0.01 | 0.01 | 100 | 1016.5 |
| 20260504223040 | 75 | 116 | 2.6 | 12.2 | 0.00 | 0.01 | 0.01 | 100 | 1016.5 |
| 20260504222538 | 75 | 103 | 6.1 | 12.2 | 0.00 | 0.01 | 0.01 | 100 | 1016.4 |
| 20260504222037 | 75 | 99 | 2.6 | 9.6 | 0.00 | 0.01 | 0.01 | 100 | 1016.4 |
| 20260504221553 | 75 | 139 | 2.6 | 12.2 | 0.00 | 0.01 | 0.01 | 100 | 1016.5 |
| 20260504221037 | 75 | 108 | 2.6 | 9.6 | 0.00 | 0.01 | 0.01 | 100 | 1016.4 |
| 20260504220537 | 75 | 121 | 2.6 | 12.2 | 0.00 | 0.01 | 0.01 | 100 | 1016.5 |
| 20260504220037 | 75 | 111 | 4.3 | 12.2 | 0.00 | 0.01 | 0.01 | 100 | 1016.5 |
| 20260504215537 | 75 | 120 | 2.6 | 8.7 | 0.00 | 0.01 | 0.01 | 100 | 1016.5 |
| 20260504215036 | 75 | 110 | 2.6 | 9.6 | 0.00 | 0.01 | 0.01 | 100 | 1016.6 |
| 20260504214536 | 76 | 98 | 2.6 | 9.6 | 0.00 | 0.01 | 0.01 | 100 | 1016.5 |
| 20260504214036 | 76 | 115 | 3.5 | 10.4 | 0.00 | 0.01 | 0.01 | 100 | 1016.5 |
| 20260504213536 | 76 | 91 | 3.5 | 10.4 | 0.00 | 0.01 | 0.01 | 100 | 1016.5 |
| 20260504213047 | 76 | 84 | 1.7 | 10.4 | 0.00 | 0.01 | 0.01 | 100 | 1016.6 |
| 20260504212535 | 76 | 103 | 2.6 | 12.2 | 0.00 | 0.01 | 0.01 | 100 | 1016.6 |
| 20260504212038 | 76 | 109 | 3.5 | 12.2 | 0.00 | 0.01 | 0.01 | 100 | 1016.6 |
| 20260504211539 | 76 | 123 | 3.5 | 13.0 | 0.00 | 0.01 | 0.01 | 100 | 1016.6 |
| 20260504211035 | 77 | 128 | 2.6 | 8.7 | 0.00 | 0.01 | 0.01 | 100 | 1016.7 |
| 20260504210537 | 77 | 28 | 4.3 | 11.3 | 0.00 | 0.01 | 0.01 | 100 | 1016.5 |
| 20260504210034 | 76 | 146 | 5.2 | 11.3 | 0.00 | 0.01 | 0.01 | 100 | 1016.8 |
| 20260504205534 | 77 | 106 | 2.6 | 13.0 | 0.00 | 0.01 | 0.01 | 100 | 1016.6 |
| 20260504205035 | 77 | 134 | 4.3 | 13.0 | 0.00 | 0.01 | 0.01 | 100 | 1016.7 |
| 20260504204535 | 76 | 126 | 3.5 | 12.2 | 0.00 | 0.01 | 0.01 | 100 | 1016.6 |
| 20260504204033 | 76 | 28 | 4.3 | 15.6 | 0.00 | 0.01 | 0.01 | 100 | 1016.8 |
| 20260504203533 | 76 | 132 | 4.3 | 15.6 | 0.00 | 0.01 | 0.01 | 100 | 1016.7 |
| 20260504203045 | 77 | 165 | 4.3 | 11.3 | 0.00 | 0.01 | 0.01 | 100 | 1016.8 |
| 20260504202533 | 76 | 101 | 4.3 | 13.0 | 0.00 | 0.01 | 0.01 | 100 | 1016.7 |
| 20260504202033 | 76 | 137 | 6.1 | 13.0 | 0.00 | 0.01 | 0.01 | 100 | 1017.0 |
| 20260504201532 | 77 | 111 | 3.5 | 10.4 | 0.00 | 0.01 | 0.01 | 100 | 1016.9 |
| 20260504201032 | 76 | 121 | 3.5 | 10.4 | 0.00 | 0.01 | 0.01 | 100 | 1016.9 |
| 20260504200532 | 76 | 5 | 3.5 | 9.6 | 0.00 | 0.01 | 0.01 | 100 | 1017.1 |
| 20260504200032 | 76 | 121 | 4.3 | 13.0 | 0.00 | 0.01 | 0.01 | 100 | 1017.2 |
| 20260504195531 | 76 | 72 | 3.5 | 13.0 | 0.00 | 0.01 | 0.01 | 100 | 1017.3 |
| 20260504195031 | 76 | 119 | 4.3 | 13.0 | 0.00 | 0.01 | 0.01 | 100 | 1017.3 |
| 20260504194539 | 77 | 104 | 4.3 | 13.0 | 0.00 | 0.01 | 0.01 | 100 | 1017.3 |
| 20260504194031 | 77 | 142 | 2.6 | 10.4 | 0.00 | 0.01 | 0.01 | 100 | 1017.4 |
| 20260504193533 | 77 | 110 | 2.6 | 9.6 | 0.00 | 0.01 | 0.01 | 100 | 1017.3 |
| 20260504193030 | 77 | 151 | 3.5 | 9.6 | 0.00 | 0.01 | 0.01 | 100 | 1017.4 |
| 20260504192530 | 77 | 87 | 4.3 | 13.9 | 0.00 | 0.01 | 0.01 | 100 | 1017.4 |
| 20260504192032 | 77 | 153 | 5.2 | 13.9 | 0.00 | 0.01 | 0.01 | 100 | 1017.4 |
| 20260504191537 | 77 | 143 | 5.2 | 13.9 | 0.00 | 0.01 | 0.01 | 100 | 1017.4 |
| 20260504191029 | 76 | 128 | 4.3 | 10.4 | 0.00 | 0.01 | 0.01 | 100 | 1017.3 |
| 20260504190532 | 76 | 128 | 3.5 | 11.3 | 0.00 | 0.01 | 0.01 | 100 | 1017.5 |
| 20260504190030 | 77 | 105 | 4.3 | 11.3 | 0.00 | 0.01 | 0.01 | 100 | 1017.6 |
| 20260504185530 | 78 | 72 | 3.5 | 11.3 | 0.00 | 0.01 | 0.01 | 100 | 1017.6 |
| 20260504185032 | 77 | 117 | 3.5 | 11.3 | 0.00 | 0.01 | 0.01 | 100 | 1017.7 |
| 20260504184530 | 78 | 99 | 4.3 | 12.2 | 0.00 | 0.01 | 0.01 | 100 | 1017.7 |
| 20260504184033 | 78 | 98 | 5.2 | 12.2 | 0.00 | 0.01 | 0.01 | 100 | 1017.6 |
| 20260504183530 | 77 | 126 | 5.2 | 12.2 | 0.00 | 0.01 | 0.01 | 100 | 1017.9 |
| 20260504183028 | 77 | 142 | 5.2 | 10.4 | 0.00 | 0.01 | 0.01 | 100 | 1018.0 |
| 20260504182527 | 77 | 121 | 5.2 | 9.6 | 0.00 | 0.01 | 0.01 | 100 | 1018.1 |
| 20260504182027 | 77 | 113 | 2.6 | 10.4 | 0.00 | 0.01 | 0.01 | 100 | 1018.1 |
| 20260504181527 | 77 | 126 | 2.6 | 10.4 | 0.00 | 0.01 | 0.01 | 100 | 1018.1 |
| 20260504181029 | 76 | 121 | 5.2 | 11.3 | 0.00 | 0.01 | 0.01 | 100 | 1018.2 |
| 20260504180527 | 76 | 142 | 5.2 | 11.3 | 0.00 | 0.01 | 0.01 | 100 | 1018.2 |
| 20260504180027 | 77 | 148 | 3.5 | 10.4 | 0.00 | 0.01 | 0.01 | 100 | 1018.1 |
| 20260504175530 | 77 | 139 | 5.2 | 9.6 | 0.00 | 0.01 | 0.01 | 100 | 1018.1 |
| 20260504175026 | 77 | 94 | 3.5 | 9.6 | 0.00 | 0.01 | 0.01 | 100 | 1018.1 |
| 20260504174526 | 77 | 5 | 3.5 | 12.2 | 0.00 | 0.01 | 0.01 | 100 | 1018.2 |
| 20260504174027 | 77 | 135 | 4.3 | 12.2 | 0.00 | 0.01 | 0.01 | 100 | 1018.3 |
| 20260504173526 | 77 | 120 | 2.6 | 11.3 | 0.00 | 0.01 | 0.01 | 100 | 1018.3 |
| 20260504173027 | 77 | 125 | 4.3 | 12.2 | 0.00 | 0.01 | 0.01 | 100 | 1018.3 |
| 20260504172526 | 77 | 41 | 5.2 | 11.3 | 0.00 | 0.01 | 0.01 | 100 | 1018.3 |
| 20260504172025 | 77 | 126 | 3.5 | 12.2 | 0.00 | 0.01 | 0.01 | 100 | 1018.2 |
| 20260504171531 | 77 | 111 | 4.3 | 12.2 | 0.00 | 0.01 | 0.01 | 100 | 1018.3 |
| 20260504171027 | 76 | 119 | 4.3 | 9.6 | 0.00 | 0.01 | 0.01 | 100 | 1018.2 |
| 20260504170524 | 77 | 94 | 2.6 | 10.4 | 0.00 | 0.01 | 0.01 | 100 | 1018.3 |
| 20260504151015 | 76 | 130 | 3.5 | 12.2 | 0.00 | 0.01 | 0.01 | 100 | 1018.6 |
| 20260504150515 | 76 | 137 | 3.5 | 12.2 | 0.00 | 0.01 | 0.01 | 100 | 1018.6 |
| 20260504141013 | 75 | 36 | 2.6 | 11.3 | 0.00 | 0.01 | 0.01 | 100 | 1018.2 |
| 20260504140508 | 75 | 80 | 2.6 | 13.0 | 0.00 | 0.01 | 0.01 | 100 | 1018.1 |
| 20260504130554 | 74 | 27 | 6.1 | 12.2 | 0.00 | 0.01 | 0.01 | 100 | 1017.6 |
| 20260504110539 | 73 | 336 | 4.3 | 11.3 | 0.00 | 0.01 | 0.01 | 100 | 1016.5 |
| 20260504100535 | 72 | 355 | 2.6 | 7.8 | 0.01 | 0.03 | 0.01 | 100 | 1016.1 |
| 20260504081528 | 74 | 355 | 2.6 | 11.3 | 0.00 | 0.09 | 0.00 | 100 | 1015.4 |
| 20260504081026 | 74 | 42 | 3.5 | 10.4 | 0.00 | 0.09 | 0.00 | 100 | 1015.2 |
| 20260504080523 | 74 | 34 | 1.7 | 11.3 | 0.00 | 0.09 | 0.00 | 100 | 1015.3 |
| 20260504050557 | 74 | 28 | 1.7 | 9.6 | 0.00 | 0.09 | 0.00 | 100 | 1017.1 |
| 20260504045555 | 74 | 355 | 1.7 | 8.7 | 0.00 | 0.09 | 0.00 | 100 | 1017.4 |
| 20260504045056 | 74 | 96 | 1.7 | 8.7 | 0.00 | 0.09 | 0.00 | 100 | 1017.5 |
| 20260504044557 | 74 | 21 | 2.6 | 8.7 | 0.00 | 0.09 | 0.00 | 100 | 1017.5 |
| 20260504044055 | 74 | 67 | 1.7 | 8.7 | 0.00 | 0.09 | 0.00 | 100 | 1017.4 |
| 20260504043553 | 74 | 33 | 1.7 | 10.4 | 0.00 | 0.09 | 0.00 | 100 | 1017.5 |
| 20260504043054 | 74 | 5 | 1.7 | 10.4 | 0.00 | 0.09 | 0.00 | 100 | 1017.7 |
| 20260504042550 | 74 | 71 | 0.9 | 4.3 | 0.00 | 0.09 | 0.00 | 100 | 1017.8 |
| 20260504042048 | 74 | 49 | 0.9 | 4.3 | 0.00 | 0.09 | 0.00 | 100 | 1017.7 |
| 20260504041546 | 74 | 52 | 0.9 | 4.3 | 0.00 | 0.09 | 0.00 | 100 | 1017.7 |
| 20260504041046 | 74 | 76 | 0.9 | 4.3 | 0.00 | 0.09 | 0.00 | 100 | 1017.7 |
| 20260504040548 | 74 | 138 | 0.9 | 8.7 | 0.00 | 0.09 | 0.00 | 100 | 1017.7 |
| 20260504040100 | 74 | 66 | 1.7 | 8.7 | 0.00 | 0.09 | 0.00 | 100 | 1017.8 |
| 20260504035543 | 74 | 54 | 0.9 | 5.2 | 0.00 | 0.09 | 0.00 | 100 | 1017.9 |
| 20260504035039 | 74 | 39 | 0.9 | 7.0 | 0.00 | 0.09 | 0.00 | 100 | 1017.9 |
| 20260504034541 | 74 | 106 | 1.7 | 7.0 | 0.00 | 0.09 | 0.09 | 100 | 1017.9 |
| 20260504034039 | 74 | 127 | 1.7 | 7.0 | 0.00 | 0.09 | 0.09 | 100 | 1017.9 |
| 20260504033539 | 74 | 84 | 1.7 | 7.0 | 0.00 | 0.09 | 0.09 | 100 | 1017.9 |
| 20260504033040 | 73 | 134 | 2.6 | 7.0 | 0.00 | 0.09 | 0.09 | 100 | 1017.9 |
| 20260504032538 | 73 | 50 | 0.0 | 5.2 | 0.00 | 0.09 | 0.09 | 100 | 1018.2 |